BREEZE-M R/B, 42750

Orbit data source: Space-Track

BREEZE-M R/B, 42750 is space debris in HEO originally from a launch on Thu, 08 Jun 2017 UTC launched from the Tyuratam Missile And Space Complex (TTMTR). Debris objects in space refer to the collection of defunct objects orbiting the Earth. Examples of debris include non-operational satellites, rocket bodies, and fragments generated from explosions, collisions, or faulty payload assembly.

Loading next visibility...
Identifier
42750, 2017-032B
Orbit
HEO
Country
Flag of CISCIS
Related business
Manufacturer
Khrunichev
Mission
Spacecraft
Bus & Motor
BRIZ, Unknown motor
Mass
~1,600 kg wet, 1,600 kg dry
Launch date (UTC)
2017-06-08 (8 years ago)
Launch vehicle
Unknown
Launch site
Tyuratam Missile And Space Complex (TTMTR)
Object type
Payload
Rocket body
Debris
Shape & HBR
Cyl, 2.0 m
Radar Cross Section
15.135 m², Large (>1 m²)

Expand to show TLE details & history
Last TLE update: 1 day ago

TLE from 1 day ago
0 BREEZE-M R/B
1 42750U 17032B   25305.81176358 -.00000211  00000-0  00000-0 0  9990
2 42750  30.8752 264.0186 6640454 133.7504 305.1517  2.26359751 69528
Epoch: 2025-11-01T19:28Z
TLE epoch observation values (Epoch: 2025-11-01T19:28:56.373Z)
Latitude
-0.00001°
Longitude
-69.63202°
Altitude
18,928.998 km
Speed
3.903 km/s
True Right ascension
17h 35m 45s
True Declination
0° 00' 00"
Sunlit
Object was in daylight at epoch
Visualization orbit readout
Latitude
Unknown
Longitude
Unknown
Altitude
Unknown
Speed
Unknown
Apparent Right ascension
Unknown
Apparent Declination
Unknown
Sunlit
N/A
Visualization observer readout
Local Sidereal Time
21:32:46
Azimuth
Unknown
Elevation
Unknown
Doppler factor
Unknown
Orbital elements
Apogee altitude
34,398.736 km
Perigee altitude
1,854.318 km
Semi-major axis
24,504.664 km
Eccentricity
0.66405
Inclination
30.8752°
RAAN
264.0186°
Arg. of periapsis
133.7504°
True anomaly
226.29561°
Mean anomaly
305.1517°
Eccentric anomaly
267.1517°
Mean motion
0.56581 °/min
Orbital period
636.26 mins
BSTAR
0
Loading maneuver chart data...
Computing Atmospheric mass density...
Loading historical data...
Loading historical data...
Loading historical data...
Loading historical data...
Loading historical data...
Loading historical data...
Loading historical data...
Other satellites on launch #32 in the year 2017 (2017-06-08 UTC)

Documentation

Showing up to 5 results
|